Tracking 18942 objects as of 18-Jan-2018
HD Live streaming from Space Station
objects crossing your sky now

COSMOS 1640

Track COSMOS 1640 now!
10-day predictions
COSMOS 1640 is classified as:


NORAD ID: 15622
Int'l Code: 1985-023F
Perigee: 1,433.0 km
Apogee: 1,486.9 km
Inclination: 74.1 °
Period: 114.9 minutes
Semi major axis: 7830 km
RCS: 0.7149 m2 (medium)
Launch date: March 21, 1985
Source: Commonwealth of Independent States (former USSR) (CIS)
Launch site: PLESETSK MISSILE AND SPACE COMPLEX (PKMTR)
aabbcc
Your satellite tracking list
Your tracking list is empty




NASA's NSSDC Master Catalog

Two Line Element Set (TLE):
1 15622U 85023F   18018.49670032 -.00000013  00000-0  17393-4 0  9995
2 15622  74.0553  37.9608 0034432 321.1824 191.5333 12.52792202501678
Source of the keplerian elements: AFSPC